Location: DARK SKY Beskydy - Park tmavé oblohy, www.darkskybeskydy.cz
(49.4926°N, 18.5016°E)
Time: 00:33:30
(UTC+01:00)

Tiangong - Pass Details

Date: 08 December 2022
Orbit: 383 x 386 km, 41.5° (Epoch: 28 January)

Event Time Altitude Azimuth Distance (km) Brightness Sun altitude
Rises 18:19:33 0° 256° (WSW) 2,257 3.2 -23.7°
Reaches altitude 10° 18:22:56 10° 217° (SW) 1,404 1.2 -24.3°
Maximum altitude 18:23:48 11° 201° (SSW) 1,355 0.9 -24.4°
Enters shadow 18:24:00 11° 197° (SSW) 1,358 0.9 -24.4°
